Location: Anna District 4 Election Precinct
(37.4833°N, 89.2195°W)
Time: 19:55:50
(UTC+00:00)

NOAA 12 - Pass Details

Date: 08 March 2021
Orbit: 795 x 815 km, 98.5° (Epoch: 15 April)

Event Time Altitude Azimuth Distance (km) Brightness Sun altitude
Rises 00:22:18 0° 199° (SSW) 3,311 7.6 -5.9°
Reaches altitude 10° 00:25:04 10° 213° (SSW) 2,388 7.1 -6.4°
Maximum altitude 00:29:15 24° 265° (W) 1,645 6.9 -7.2°
Drops below altitude 10° 00:33:28 10° 318° (NW) 2,409 7.2 -8.1°
Sets 00:36:17 0° 332° (NNW) 3,347 7.7 -8.6°
